Regional Weather Roundup
Issued by NWS Glasgow, MT

Home | Current Version | Previous Version | Text Only | Print | Product List | Glossary On
Versions: 1 2 3 4 5 6 7 8 9 10 11 12 13 14 15 16 17 18 19 20 21 22 23 24 25 26 27 28 29 30 31 32 33 34 35 36 37 38 39 40 41 42 43 44 45 46 47 48 49 50
327
ASUS45 KGGW 201015
RWRGGW
HOURLY REGIONAL WEATHER ROUNDUP FOR NORTHEAST MONTANA
NATIONAL WEATHER SERVICE GLASGOW MONTANA
300 AM MST FRI JAN 20 2017

NOTE: "FAIR" INDICATES FEW OR NO CLOUDS BELOW 12,000 FEET WITH NO
SIGNIFICANT WEATHER AND/OR OBSTRUCTIONS TO VISISBILITY.

NORTHEAST MONTANA


CITY           SKY/WX    TMP DP  RH WIND       PRES   REMARKS
GLASGOW        CLOUDY    26  23  88 W9        29.44R
PLENTYWOOD       N/A     27  27 100 NW3         N/A
WOLF POINT     CLEAR     20  17  88 SW5       29.44S
JORDAN           N/A     36  33  89 W7        29.45S
WINNETT          N/A     34  32  92 SW2         N/A
SIDNEY         CLOUDY    15  13  91 SW7       29.43R
GLENDIVE       NOT AVBL
MALTA            N/A     35  33  92 SW3         N/A
SCOBEY           N/A     21  15  78 CALM      29.43F HAZE

FORT PECK REPORTS


CITY           SKY/WX    TMP DP  RH WIND       PRES   REMARKS
FORT PECK        N/A     31  28  89 S6          N/A
THE PINES        N/A     35  29  78 NW1         N/A

SOUTHEAST MONTANA


CITY           SKY/WX    TMP DP  RH WIND       PRES   REMARKS
BILLINGS       CLOUDY    32  30  92 SW12      29.50R
MILES CITY     CLOUDY    18  14  84 SE7       29.47S
BAKER          CLOUDY    18  15  88 NW3       29.44S
LIVINGSTON     CLOUDY    36  25  64 W12       29.50R

CENTRAL MONTANA


CITY           SKY/WX    TMP DP  RH WIND       PRES   REMARKS
HAVRE          CLOUDY    33  31  92 SW10      29.45R
LEWISTOWN      CLOUDY    35  30  82 CALM      29.47R
GREAT FALLS    CLOUDY    34  26  72 SW9       29.46S
CUT BANK       MOCLDY    32  22  66 W15       29.43S
HELENA         CLOUDY    30  26  85 CALM      29.52S
BUTTE          CLOUDY    22  19  89 CALM      29.51F
BOZEMAN        CLOUDY    30  27  88 NE6       29.53S

WESTERN MONTANA


CITY           SKY/WX    TMP DP  RH WIND       PRES   REMARKS
MISSOULA       FOG       32  32 100 N3        29.57S VSB 1/4
KALISPELL      NOT AVBL

NORTH DAKOTA


CITY           SKY/WX    TMP DP  RH WIND       PRES   REMARKS
WILLISTON      CLOUDY    16  14  92 S3        29.42S FOG
DICKINSON      CLOUDY    19  16  88 W7        29.37F
MINOT          CLOUDY    20  16  84 SW9       29.38F
BISMARCK       FOG       20  19  96 NW3       29.46S VSB 1/4

SOUTHERN SASKATCHEWAN


CITY           SKY/WX    TMP DP  RH WIND       PRES   REMARKS
REGINA         CLEAR     19  18  93 SE7       29.37S
ESTEVAN        PTCLDY    16  14  93 SW5       29.38F
SWIFT CURRENT  CLOUDY    37  27  65 W15G23    29.34S





USA.gov is the U.S. government's official web portal to all federal, state and local government web resources and services.